Time,TemperatureF,DewpointF,PressureIn,WindDirection,WindDirectionDegrees,WindSpeedMPH,WindSpeedGustMPH,Humidity,HourlyPrecipIn,Conditions,Clouds,dailyrainin,SoftwareType,DateUTC
2013-02-27 00:04:00,34.3,34.0,29.48,SE,128,1.0,2.0,97,0.04,,,0.90,weatherlink.com 1.10,2013-02-27 05:04:00,
2013-02-27 00:17:00,34.4,34.0,29.48,SSE,158,0.0,3.0,97,0.06,,,0.92,weatherlink.com 1.10,2013-02-27 05:17:00,
2013-02-27 00:33:00,34.4,34.0,29.48,SSE,158,0.0,0.0,97,0.06,,,0.94,weatherlink.com 1.10,2013-02-27 05:33:00,
2013-02-27 00:49:00,34.5,34.0,29.49,SSE,158,0.0,3.0,97,0.05,,,0.00,weatherlink.com 1.10,2013-02-27 05:49:00,
2013-02-27 01:04:00,34.6,34.0,29.49,SSE,158,2.0,3.0,97,0.05,,,0.01,weatherlink.com 1.10,2013-02-27 06:04:00,
2013-02-27 01:18:00,35.0,34.0,29.50,West,268,1.0,5.0,97,0.04,,,0.02,weatherlink.com 1.10,2013-02-27 06:18:00,
2013-02-27 01:32:00,35.3,35.0,29.50,West,265,2.0,5.0,97,0.02,,,0.02,weatherlink.com 1.10,2013-02-27 06:32:00,
2013-02-27 01:49:00,35.9,35.0,29.50,West,259,3.0,10.0,97,0.03,,,0.03,weatherlink.com 1.10,2013-02-27 06:49:00,
2013-02-27 02:04:00,36.1,35.0,29.50,WSW,253,4.0,9.0,97,0.03,,,0.04,weatherlink.com 1.10,2013-02-27 07:04:00,
2013-02-27 02:19:00,36.1,35.0,29.50,WSW,238,8.0,9.0,97,0.02,,,0.04,weatherlink.com 1.10,2013-02-27 07:19:00,
2013-02-27 02:33:00,36.1,35.0,29.50,WSW,250,4.0,9.0,97,0.03,,,0.05,weatherlink.com 1.10,2013-02-27 07:33:00,
2013-02-27 02:49:00,36.1,35.0,29.50,WSW,257,4.0,8.0,97,0.02,,,0.05,weatherlink.com 1.10,2013-02-27 07:49:00,
2013-02-27 03:04:00,36.2,36.0,29.50,West,261,4.0,9.0,97,0.01,,,0.05,weatherlink.com 1.10,2013-02-27 08:04:00,
2013-02-27 03:19:00,36.2,36.0,29.51,SW,226,5.0,10.0,97,0.02,,,0.06,weatherlink.com 1.10,2013-02-27 08:19:00,
2013-02-27 03:34:00,36.2,36.0,29.51,SW,215,3.0,10.0,97,0.01,,,0.06,weatherlink.com 1.10,2013-02-27 08:34:00,
2013-02-27 03:49:00,36.1,35.0,29.51,SW,231,2.0,8.0,97,0.01,,,0.06,weatherlink.com 1.10,2013-02-27 08:49:00,
2013-02-27 04:06:00,36.1,35.0,29.51,West,263,3.0,10.0,97,0.02,,,0.07,weatherlink.com 1.10,2013-02-27 09:06:00,
2013-02-27 04:22:00,36.1,35.0,29.51,SW,219,4.0,8.0,97,0.01,,,0.07,weatherlink.com 1.10,2013-02-27 09:22:00,
2013-02-27 04:36:00,36.2,36.0,29.51,SW,226,3.0,8.0,97,0.02,,,0.08,weatherlink.com 1.10,2013-02-27 09:36:00,
2013-02-27 04:52:00,36.2,36.0,29.52,West,273,3.0,8.0,97,0.02,,,0.08,weatherlink.com 1.10,2013-02-27 09:52:00,
2013-02-27 05:07:00,36.2,36.0,29.52,WSW,253,3.0,7.0,97,0.01,,,0.08,weatherlink.com 1.10,2013-02-27 10:07:00,
2013-02-27 05:21:00,36.2,36.0,29.52,WSW,252,6.0,10.0,97,0.01,,,0.08,weatherlink.com 1.10,2013-02-27 10:21:00,
2013-02-27 05:37:00,36.4,36.0,29.53,West,270,6.0,15.0,97,0.00,,,0.08,weatherlink.com 1.10,2013-02-27 10:37:00,
2013-02-27 05:52:00,36.2,36.0,29.53,WSW,247,13.0,19.0,97,0.00,,,0.08,weatherlink.com 1.10,2013-02-27 10:52:00,
2013-02-27 06:07:00,36.0,35.0,29.54,West,269,8.0,18.0,97,0.00,,,0.08,weatherlink.com 1.10,2013-02-27 11:07:00,
2013-02-27 06:22:00,35.7,35.0,29.54,West,259,8.0,14.0,97,0.00,,,0.08,weatherlink.com 1.10,2013-02-27 11:22:00,
2013-02-27 06:38:00,35.2,34.0,29.55,WSW,255,6.0,16.0,96,0.01,,,0.09,weatherlink.com 1.10,2013-02-27 11:38:00,
2013-02-27 06:53:00,34.8,34.0,29.56,WSW,240,5.0,17.0,96,0.01,,,0.09,weatherlink.com 1.10,2013-02-27 11:53:00,
2013-02-27 07:08:00,34.6,34.0,29.56,SW,236,4.0,13.0,96,0.02,,,0.10,weatherlink.com 1.10,2013-02-27 12:08:00,
2013-02-27 07:23:00,34.5,34.0,29.56,WSW,251,7.0,12.0,96,0.02,,,0.10,weatherlink.com 1.10,2013-02-27 12:23:00,
2013-02-27 07:39:00,34.3,33.0,29.57,West,268,7.0,18.0,96,0.01,,,0.10,weatherlink.com 1.10,2013-02-27 12:39:00,
2013-02-27 07:57:00,34.3,33.0,29.57,SSW,202,9.0,14.0,96,0.01,,,0.10,weatherlink.com 1.10,2013-02-27 12:57:00,
2013-02-27 08:09:00,34.2,33.0,29.58,West,261,13.0,20.0,96,0.00,,,0.10,weatherlink.com 1.10,2013-02-27 13:09:00,
2013-02-27 08:24:00,34.2,33.0,29.59,WSW,254,5.0,16.0,96,0.00,,,0.10,weatherlink.com 1.10,2013-02-27 13:24:00,
2013-02-27 08:40:00,34.1,33.0,29.60,West,265,4.0,19.0,96,0.00,,,0.10,weatherlink.com 1.10,2013-02-27 13:40:00,
2013-02-27 08:54:00,34.1,33.0,29.60,WSW,245,10.0,16.0,96,0.00,,,0.10,weatherlink.com 1.10,2013-02-27 13:54:00,
2013-02-27 09:12:00,34.1,33.0,29.60,West,259,3.0,17.0,96,0.00,,,0.10,weatherlink.com 1.10,2013-02-27 14:12:00,
2013-02-27 09:26:00,34.1,33.0,29.60,WNW,292,12.0,13.0,96,0.00,,,0.10,weatherlink.com 1.10,2013-02-27 14:26:00,
2013-02-27 09:42:00,34.1,33.0,29.61,WSW,239,6.0,12.0,96,0.00,,,0.10,weatherlink.com 1.10,2013-02-27 14:42:00,
2013-02-27 09:56:00,34.2,33.0,29.61,SW,219,6.0,16.0,96,0.00,,,0.10,weatherlink.com 1.10,2013-02-27 14:56:00,
2013-02-27 10:27:00,34.1,33.0,29.61,SW,222,12.0,18.0,96,0.00,,,0.10,weatherlink.com 1.10,2013-02-27 15:27:00,
2013-02-27 10:42:00,34.1,33.0,29.61,SW,231,7.0,18.0,96,0.00,,,0.10,weatherlink.com 1.10,2013-02-27 15:42:00,
2013-02-27 10:57:00,34.2,33.0,29.61,WSW,245,10.0,16.0,96,0.00,,,0.10,weatherlink.com 1.10,2013-02-27 15:57:00,
2013-02-27 11:13:00,34.2,33.0,29.61,SSW,201,6.0,16.0,95,0.00,,,0.10,weatherlink.com 1.10,2013-02-27 16:13:00,
2013-02-27 11:27:00,34.3,33.0,29.61,West,266,11.0,20.0,95,0.00,,,0.10,weatherlink.com 1.10,2013-02-27 16:27:00,
2013-02-27 11:43:00,34.3,33.0,29.61,SSW,192,7.0,21.0,95,0.00,,,0.10,weatherlink.com 1.10,2013-02-27 16:43:00,
2013-02-27 11:58:00,34.4,33.0,29.61,WSW,257,14.0,22.0,95,0.00,,,0.10,weatherlink.com 1.10,2013-02-27 16:58:00,
2013-02-27 12:14:00,34.5,33.0,29.61,WSW,248,8.0,18.0,94,0.00,,,0.10,weatherlink.com 1.10,2013-02-27 17:14:00,
2013-02-27 12:29:00,34.7,33.0,29.61,WSW,239,5.0,12.0,94,0.00,,,0.10,weatherlink.com 1.10,2013-02-27 17:29:00,
2013-02-27 12:44:00,34.9,33.0,29.61,West,266,5.0,15.0,93,0.00,,,0.10,weatherlink.com 1.10,2013-02-27 17:44:00,
2013-02-27 12:59:00,34.8,33.0,29.61,SW,223,11.0,17.0,93,0.00,,,0.10,weatherlink.com 1.10,2013-02-27 17:59:00,
2013-02-27 13:14:00,35.1,33.0,29.61,WSW,250,9.0,18.0,91,0.00,,,0.10,weatherlink.com 1.10,2013-02-27 18:14:00,
2013-02-27 13:29:00,35.2,33.0,29.61,SW,236,6.0,17.0,90,0.00,,,0.10,weatherlink.com 1.10,2013-02-27 18:29:00,
2013-02-27 13:46:00,35.2,33.0,29.61,SW,218,7.0,15.0,90,0.00,,,0.10,weatherlink.com 1.10,2013-02-27 18:46:00,
2013-02-27 14:02:00,35.1,33.0,29.61,SW,235,12.0,19.0,90,0.00,,,0.10,weatherlink.com 1.10,2013-02-27 19:02:00,
2013-02-27 14:17:00,35.0,32.0,29.61,WSW,256,8.0,18.0,90,0.00,,,0.10,weatherlink.com 1.10,2013-02-27 19:17:00,
2013-02-27 14:31:00,35.0,32.0,29.61,WSW,238,7.0,15.0,90,0.00,,,0.10,weatherlink.com 1.10,2013-02-27 19:31:00,
2013-02-27 14:47:00,34.9,33.0,29.61,WSW,253,14.0,14.0,91,0.00,,,0.10,weatherlink.com 1.10,2013-02-27 19:47:00,
2013-02-27 15:02:00,34.8,33.0,29.61,SW,236,6.0,15.0,91,0.00,,,0.10,weatherlink.com 1.10,2013-02-27 20:02:00,
2013-02-27 15:17:00,34.7,32.0,29.62,WSW,238,4.0,15.0,91,0.00,,,0.10,weatherlink.com 1.10,2013-02-27 20:17:00,
2013-02-27 15:32:00,34.5,33.0,29.62,WSW,238,5.0,15.0,92,0.00,,,0.10,weatherlink.com 1.10,2013-02-27 20:32:00,
2013-02-27 15:48:00,34.4,32.0,29.62,WSW,257,13.0,15.0,92,0.00,,,0.10,weatherlink.com 1.10,2013-02-27 20:48:00,
2013-02-27 16:03:00,34.4,32.0,29.62,WSW,248,9.0,14.0,92,0.00,,,0.10,weatherlink.com 1.10,2013-02-27 21:03:00,
2013-02-27 16:17:00,34.3,32.0,29.63,WSW,258,8.0,17.0,92,0.00,,,0.10,weatherlink.com 1.10,2013-02-27 21:17:00,
2013-02-27 16:32:00,34.3,32.0,29.63,WSW,253,2.0,14.0,92,0.00,,,0.10,weatherlink.com 1.10,2013-02-27 21:32:00,
2013-02-27 16:48:00,34.0,32.0,29.63,WSW,257,6.0,16.0,93,0.00,,,0.10,weatherlink.com 1.10,2013-02-27 21:48:00,
2013-02-27 17:03:00,33.9,32.0,29.63,SW,231,5.0,13.0,93,0.00,,,0.10,weatherlink.com 1.10,2013-02-27 22:03:00,
2013-02-27 17:19:00,33.7,32.0,29.64,SW,229,9.0,15.0,93,0.01,,,0.11,weatherlink.com 1.10,2013-02-27 22:19:00,
2013-02-27 17:33:00,33.6,32.0,29.64,West,261,3.0,15.0,93,0.01,,,0.11,weatherlink.com 1.10,2013-02-27 22:33:00,
2013-02-27 17:49:00,33.5,32.0,29.65,SW,231,6.0,12.0,93,0.01,,,0.11,weatherlink.com 1.10,2013-02-27 22:49:00,
2013-02-27 18:06:00,33.3,32.0,29.65,WSW,244,8.0,14.0,94,0.01,,,0.11,weatherlink.com 1.10,2013-02-27 23:06:00,
2013-02-27 18:21:00,33.3,32.0,29.65,SW,227,6.0,11.0,93,0.00,,,0.11,weatherlink.com 1.10,2013-02-27 23:21:00,
2013-02-27 18:34:00,33.2,32.0,29.65,West,266,4.0,14.0,94,0.00,,,0.11,weatherlink.com 1.10,2013-02-27 23:34:00,
2013-02-27 18:50:00,33.2,32.0,29.66,SW,220,6.0,13.0,94,0.00,,,0.11,weatherlink.com 1.10,2013-02-27 23:50:00,
2013-02-27 19:05:00,33.1,32.0,29.66,WSW,248,3.0,17.0,94,0.00,,,0.11,weatherlink.com 1.10,2013-02-28 00:05:00,
2013-02-27 19:20:00,33.0,32.0,29.66,SSW,209,5.0,14.0,94,0.00,,,0.11,weatherlink.com 1.10,2013-02-28 00:20:00,
2013-02-27 19:37:00,32.8,31.0,29.66,West,278,7.0,12.0,94,0.00,,,0.11,weatherlink.com 1.10,2013-02-28 00:37:00,
2013-02-27 19:52:00,32.7,31.0,29.67,WSW,248,5.0,15.0,94,0.00,,,0.11,weatherlink.com 1.10,2013-02-28 00:52:00,
2013-02-27 20:06:00,32.6,31.0,29.67,West,273,8.0,16.0,94,0.00,,,0.11,weatherlink.com 1.10,2013-02-28 01:06:00,
2013-02-27 20:21:00,32.5,31.0,29.67,West,260,9.0,16.0,93,0.00,,,0.11,weatherlink.com 1.10,2013-02-28 01:21:00,
2013-02-27 20:36:00,32.4,31.0,29.67,WSW,239,5.0,18.0,94,0.00,,,0.11,weatherlink.com 1.10,2013-02-28 01:36:00,
2013-02-27 20:51:00,32.2,30.0,29.67,WSW,242,8.0,16.0,93,0.00,,,0.11,weatherlink.com 1.10,2013-02-28 01:51:00,
2013-02-27 21:07:00,32.0,31.0,29.67,WSW,256,4.0,15.0,94,0.00,,,0.11,weatherlink.com 1.10,2013-02-28 02:07:00,
2013-02-27 21:22:00,32.0,31.0,29.67,WNW,294,4.0,15.0,94,0.00,,,0.11,weatherlink.com 1.10,2013-02-28 02:22:00,
2013-02-27 21:37:00,31.7,30.0,29.67,WSW,249,5.0,17.0,94,0.00,,,0.11,weatherlink.com 1.10,2013-02-28 02:37:00,
2013-02-27 21:52:00,31.7,30.0,29.67,West,261,8.0,11.0,94,0.00,,,0.11,weatherlink.com 1.10,2013-02-28 02:52:00,
2013-02-27 22:07:00,31.7,31.0,29.67,WSW,258,5.0,12.0,95,0.00,,,0.11,weatherlink.com 1.10,2013-02-28 03:07:00,
2013-02-27 22:23:00,31.7,31.0,29.67,SSW,212,4.0,13.0,95,0.00,,,0.11,weatherlink.com 1.10,2013-02-28 03:23:00,
2013-02-27 22:39:00,31.7,31.0,29.67,West,264,7.0,14.0,95,0.00,,,0.11,weatherlink.com 1.10,2013-02-28 03:39:00,
2013-02-27 22:53:00,31.8,30.0,29.66,West,267,5.0,12.0,94,0.00,,,0.11,weatherlink.com 1.10,2013-02-28 03:53:00,
2013-02-27 23:08:00,31.9,31.0,29.66,West,278,10.0,11.0,95,0.00,,,0.11,weatherlink.com 1.10,2013-02-28 04:08:00,
2013-02-27 23:24:00,32.0,31.0,29.66,WSW,258,4.0,14.0,95,0.00,,,0.11,weatherlink.com 1.10,2013-02-28 04:24:00,
2013-02-27 23:40:00,32.0,31.0,29.66,WSW,244,6.0,18.0,94,0.00,,,0.11,weatherlink.com 1.10,2013-02-28 04:40:00,
2013-02-27 23:54:00,32.1,31.0,29.65,WNW,285,8.0,13.0,94,0.00,,,0.11,weatherlink.com 1.10,2013-02-28 04:54:00,